Regional Weather Roundup
Issued by NWS Jackson, KY

Current Version | Previous Version | Text Only | Print | Product List | Glossary On
Versions: 1 2 3 4 5 6 7 8 9 10 11 12 13 14 15 16 17 18 19 20 21 22 23 24 25 26 27 28 29 30 31 32 33 34 35 36 37 38 39 40 41 42 43 44 45 46 47 48 49 50
000
ASUS43 KJKL 021710
RWRJKL

EAST KENTUCKY HOURLY WEATHER ROUNDUP
NATIONAL WEATHER SERVICE JACKSON KY
100 PM EDT WED SEP 02 2015

NOTE: "FAIR" INDICATES FEW OR NO CLOUDS BELOW 12,000 FEET WITH
NO SIGNIFICANT WEATHER AND/OR OBSTRUCTIONS TO VISIBILITY.

* THESE REPORTS ARE NOT UNDER NWS QUALITY CONTROL AND MAY NOT
  REPORT WEATHER SUCH AS PRECIPITATION AND FOG.

KYZ079-080-083-085-087-088-110-112-115-119-120-021800
...EASTERN KENTUCKY...

CITY           SKY/WX    TMP DP  RH WIND       PRES   REMARKS
JACKSON        SUNNY     84  66  54 NW3       30.16F
LONDON         MOSUNNY   87  61  41 VRB3      30.15F
SOMERSET*      SUNNY     82  63  51 CALM      30.15F
MONTICELLO*    MOSUNNY   88  67  49 CALM      30.17F HX  91
WILLIAMSBURG*  SUNNY     84  64  51 CALM      30.15F
MIDDLESBORO*   MOSUNNY   84  67  56 CALM      30.14F
HARLAN APT*      N/A     81  64  57 MISG      30.16F
HAZARD APT*    SUNNY     86  64  48 NE3       30.15F
BLACK MTN*       N/A     75  64  69 VRB1        N/A
PIKEVILLE APT* MOSUNNY   81  66  61 CALM      30.15F
BIG SANDY*     MOSUNNY   85  68  56 W6        30.14F
MOREHEAD APT*  SUNNY     86  64  48 NW5       30.16F
$$

KYZ035-036-041-042-044-050-067-078-099-021800
...CENTRAL KENTUCKY...

CITY           SKY/WX    TMP DP  RH WIND       PRES   REMARKS
MT STERLING*   MOSUNNY   86  66  51 CALM      30.15F
FLEMING/MASON* SUNNY    N/A N/A N/A CALM      30.15F
DANVILLE*      MOSUNNY   86  64  48 CALM      30.15F
RICHMOND*      PTSUNNY   86  63  45 NW7       30.14F
LEXINGTON      MOSUNNY   86  66  51 W6        30.14F
FRANKFORT      MOSUNNY   86  66  51 CALM      30.12F
$$

KYZ091>093-OHZ055-061-077-WVZ005-015-034-035-042-021800
...SOUTHERN OHIO/WEST VIRGINIA...

CITY           SKY/WX    TMP DP  RH WIND       PRES   REMARKS
COVINGTON      MOSUNNY   86  68  54 VRB3      30.13F
COLUMBUS       PTSUNNY   83  68  60 W9        30.10F
DAYTON         MOSUNNY   86  71  60 W9        30.12F HX  91
WILMINGTON     CLOUDY    74  67  78 E8        30.14S
HUNTINGTON     PTSUNNY   85  64  49 NW6       30.11F
CHARLESTON     PTSUNNY   88  66  48 W6        30.11F HX  90
PINEVILLE*     MOSUNNY   85  69  57 MISG      30.20F
BECKLEY        MOSUNNY   79  61  53 VRB3      30.19F
BLUEFIELD      MOSUNNY   81  60  48 VRB5      30.22F
$$

VAZ002-007-008-TNZ017-027-036-066-071-021800
...SOUTHWEST VIRGINIA/EAST TENNESSEE...

CITY           SKY/WX    TMP DP  RH WIND       PRES   REMARKS
WISE*          PTSUNNY   81  59  47 N8        30.23F
JONESVILLE*      N/A     86  66  51 W5        30.16F
ABINGDON*      SUNNY     84  63  49 CALM      30.17F
BRISTOL        MOSUNNY   85  66  53 SE5       30.14F
KNOXVILLE      PTSUNNY   87  67  51 SW5       30.11F HX  90
OAK RIDGE      SUNNY     87  67  51 VRB3      30.13F HX  90
CROSSVILLE     MOSUNNY   84  64  50 VRB3      30.18F
NASHVILLE      PTSUNNY   88  66  48 N5        30.11F HX  90
$$

...KEY TO REMARKS...
VSB - VISIBILITY IN MILES
WCI - WIND CHILL INDEX
HX  - HEAT INDEX

$$



USA.gov is the U.S. government's official web portal to all federal, state and local government web resources and services.